Flag for Philippines Weather past 2 weeks in Zamboanga City, Philippines

Now
79 °F

Overcast.


Feels Like: 82 °F
Forecast: 78 / 87 °F
Wind: 2 mph from Northeast

Location: Zamboanga

Current Time: Sep 22, 2014 at 5:05:44 AM

Latest Report: Sep 22, 2014 at 2:00 AM


Visibility: N/A

Pressure: 29.95 "Hg

Humidity: 89%

Dew point: 75 °F

Location of Zamboanga CityLocation

Historic Weather in Zamboanga City — Graph

°F

Zamboanga City temperature yesterday

Maximum temperature yesterday: 91 °F (at 12:00 PM)
Minimum temperature yesterday: 73 °F (at 5:00 AM)
Average temperature yesterday: 84 °F

Past Weeks' High & Low Weather Summary

 TemperatureHumidityPressure
High91 °F (Sep 14, 2:00 PM)100% (Sep 19, 2:00 AM)29.98 "Hg (Sep 19, 2:00 AM)
Low72 °F (Sep 19, 6:00 AM)59% (Sep 10, 12:00 PM)29.80 "Hg (Sep 13, 2:00 PM)
Average83 °F81%29.88 "Hg
* Reported Sep 7 2:00 AM — Sep 22 2:00 AM, Zamboanga City, Weather by CustomWeather, © 2014

Note: Actual official high and low records may vary slightly from our data, if they occured in-between our weather recording intervals... More about our weather records

Advertising

Zamboanga City weather history for previous 24 hours

 ConditionsComfort  
Time TempWeatherWind HumidityBarometerVisibility
2:00 AM
Sep 22
79 °FOvercast.2 mph89%29.95 "HgN/A
11:00 PM
Sep 21
81 °FPassing clouds.2 mph84%29.98 "HgN/A
8:00 PM81 °FPassing clouds.2 mph89%29.95 "HgN/A
6:00 PM84 °FPassing clouds.No wind84%29.89 "HgN/A
5:00 PM88 °FPartly sunny.No wind75%29.89 "HgN/A
4:00 PM90 °FPartly sunny.2 mph71%29.86 "HgN/A
3:00 PM91 °FPartly sunny.No wind67%29.86 "HgN/A
2:00 PM91 °FPartly sunny.5 mph71%29.89 "HgN/A
1:00 PM91 °FPartly sunny.5 mph67%29.89 "HgN/A
12:00 PM91 °FPartly sunny.No wind63%29.92 "HgN/A
11:00 AM90 °FPartly sunny.No wind71%29.92 "HgN/A
10:00 AM90 °FPartly sunny.5 mph71%29.95 "HgN/A
9:00 AM86 °FPartly sunny.2 mph75%29.98 "HgN/A
8:00 AM82 °FPartly sunny.5 mph79%29.95 "HgN/A
7:00 AM77 °FPartly sunny.5 mph83%29.92 "HgN/A
6:00 AM73 °FBroken clouds.2 mph89%29.89 "HgN/A
5:00 AM73 °FPartly cloudy.2 mph89%29.89 "HgN/A
Weather by CustomWeather, © 2014

See weather overviewHow to use our weather pages